[[{"header":{"parameterUnit":"m.s-1","parameterCategory":1,"la1":30.2991,"la2":30.254,"lo1":-89.0895,"lo2":-89.0444,"dx":0.0017,"dy":0.0017,"nx":28,"ny":28,"refTime":"2023-02-06T09:00:00:Z","depth":0,"parameterNumber":2,"parameterNumberName":"U-component_of_WINDS"},"data":[0,0,0,0,0,0,0,0,0,0,0,0,0,0,0,0,0,0,0,0,0,0,0,0,0,0,0,0,0,0,0,0,0,0,0,0,0,0,0,0,0,0,0,0,0,0,0,0,0,0,0,0,0,0,0,0,0,0,-4.1535,-4.1537,0,-4.167,-4.1672,-4.1673,-4.1677,-4.1675,-4.1673,-4.1672,-4.1809,-4.1814,-4.1819,0,0,0,0,0,0,0,0,0,0,0,0,0,-4.1282,-4.1286,-4.1535,-4.1537,-4.1538,-4.167,-4.1672,-4.1673,-4.1677,-4.1675,-4.1673,-4.1671,-4.1808,-4.1814,-4.182,0,0,0,0,0,0,0,0,0,0,0,0,0,-4.1402,-4.1288,-4.1535,-4.1556,-4.1559,-4.1669,-4.1672,-4.1674,-4.1677,-4.1675,-4.1672,-4.167,-4.1805,-4.1813,-4.1821,-4.1919,0,0,-4.1845,-4.1848,0,0,0,0,0,0,0,0,-4.1395,-4.1411,-4.1551,-4.1555,-4.1559,-4.1654,-4.1633,-4.1756,-4.1678,-4.1632,-4.1672,-4.1669,-4.176,-4.1771,-4.1802,-4.1925,-4.1931,-4.1845,-4.185,-4.1853,-4.1856,0,0,0,0,0,0,0,-4.1386,-4.1405,-4.1588,-4.1553,-4.1558,-4.1559,-4.1573,-4.1656,-4.1708,-4.1636,-4.1637,-4.1653,-4.1761,-4.1794,-4.1805,-4.1933,-4.1845,-4.1852,-4.1857,-4.186,-4.2146,-4.2148,0,0,0,0,0,0,-4.1374,-4.1398,-4.1584,-4.1592,-4.1469,-4.1566,-4.1582,-4.1626,-4.1707,-4.1717,-4.1655,-4.1652,-4.1782,-4.1796,-4.181,-4.1931,-4.1853,-4.1861,-4.1865,-4.2143,-4.2146,-4.2149,0,0,0,0,0,0,-4.1368,-4.139,-4.1579,-4.1496,-4.152,-4.1573,-4.1622,-4.163,-4.1663,-4.1721,-4.1731,-4.1679,-4.1781,-4.1799,-4.1892,-4.1935,-4.1864,-4.1871,-4.2139,-4.2144,-4.2148,-4.2173,0,0,0,0,0,0,-4.1361,-4.1388,-4.1426,-4.1496,-4.1524,-4.1658,-4.1625,-4.1634,-4.1676,-4.1675,-4.1746,-4.1756,-4.178,-4.188,-4.19,-4.1945,-4.1877,-4.2136,-4.2141,-4.2146,-4.2168,-4.2177,-4.2185,0,0,0,0,0,-4.1352,-4.1427,-4.1427,-4.145,-4.1572,-4.1661,-4.1677,-4.1703,-4.168,-4.1718,-4.1756,-4.1754,-4.1928,-4.189,-4.1912,-4.196,-4.2133,-4.214,-4.2146,-4.2164,-4.2175,-4.2185,0,0,0,0,0,0,-4.1358,-4.1436,-4.1438,-4.1538,-4.1593,-4.1661,-4.171,-4.1714,-4.1776,-4.1772,-4.1802,-4.1818,-4.1911,-4.1945,-4.1901,-4.206,-4.2028,-4.2039,-4.2034,-4.2045,-4.2054,-4.2043,-4.1884,0,0,0,0,0,-4.1372,-4.1437,-4.1502,-4.1584,-4.1611,-4.1656,-4.1696,-4.1712,-4.177,-4.1793,-4.1837,-4.1894,-4.1962,-4.2005,-4.2071,-4.2174,-4.219,-4.2218,-4.2226,-4.2233,-4.2242,-4.23,-4.2314,-4.2171,-4.2171,-4.2171,0,0,-4.1399,-4.145,-4.1489,-4.1586,-4.1631,-4.1699,-4.1675,-4.1748,-4.1798,-4.1804,-4.1895,-4.193,-4.1995,-4.2094,-4.214,-4.2125,-4.2285,-4.2241,-4.2246,-4.2252,-4.2309,-4.2322,-4.2334,-4.2175,-4.2175,-4.2174,0,0,-4.1484,-4.1529,-4.1602,-4.1648,-4.1716,-4.1746,-4.1764,-4.1833,-4.1856,-4.1949,-4.1954,-4.2016,-4.2131,-4.2178,-4.2217,-4.2323,-4.2323,-4.2343,-4.2387,-4.2444,-4.2455,-4.2465,-4.2504,-4.2517,-4.2353,-4.2353,-4.2353,0,-4.1509,-4.1612,-4.164,-4.1713,-4.1756,-4.1765,-4.1841,-4.1883,-4.1969,-4.1999,-4.1982,-4.2129,-4.2173,-4.2284,-4.231,-4.2341,-4.2363,-4.2335,-4.2451,-4.2462,-4.2472,-4.2509,-4.2523,-4.2355,-4.2354,-4.2354,-4.2354,0,-4.164,-4.1711,-4.1763,-4.1846,-4.1895,-4.1969,-4.2009,-4.2056,-4.2068,-4.21,-4.2195,-4.2249,-4.2326,-4.2354,-4.2366,-4.2467,-4.2456,-4.2445,-4.2413,-4.2487,-4.2522,-4.2536,-4.2357,-4.2357,-4.2356,-4.2356,0,0,-4.173,-4.1831,-4.1849,-4.1888,-4.1965,-4.2021,-4.2096,-4.2173,-4.2212,-4.2272,-4.2336,-4.2435,-4.2426,-4.247,-4.2489,-4.2538,-4.262,-4.2521,-4.2523,-4.2538,-4.2736,-4.2743,-4.2759,-4.2622,-4.2624,-4.2627,-4.273,0,-4.1823,-4.1957,-4.1986,-4.2101,-4.2168,-4.2179,-4.2245,-4.23,-4.2333,-4.2394,-4.243,-4.25,-4.2483,-4.251,-4.256,-4.2599,-4.266,-4.2592,-4.2682,-4.2685,-4.2664,-4.2778,-4.2785,-4.2881,-4.2744,-4.2747,-4.2748,0,-4.1949,-4.2013,-4.2135,-4.2206,-4.2235,-4.2293,-4.2367,-4.2426,-4.2489,-4.251,-4.2561,-4.2574,-4.2654,-4.2619,-4.273,-4.2683,-4.2722,-4.2748,-4.2752,-4.2761,-4.272,-4.2789,-4.2911,-4.2926,-4.277,-4.2769,-4.2767,0,-4.2003,-4.2119,-4.2208,-4.2241,-4.2326,-4.2367,-4.2404,-4.2465,-4.251,-4.2574,-4.2604,-4.2677,-4.2717,-4.2773,-4.2807,-4.2778,-4.2915,-4.2883,-4.2935,-4.2934,-4.2962,-4.296,-4.3092,-4.2988,-4.2988,-4.2987,-4.2987,0,-4.2103,-4.2178,-4.2234,-4.2288,-4.2373,-4.2406,-4.2489,-4.2526,-4.2581,-4.2643,-4.2658,-4.2716,-4.2757,-4.2822,-4.2849,-4.2937,-4.2955,-4.2974,-4.298,-4.2972,-4.297,-4.2997,-4.2991,-4.2991,-4.299,-4.299,-4.2989,0,-4.2176,-4.2217,-4.2315,-4.2388,-4.2408,-4.2467,-4.253,-4.2584,-4.2618,-4.2697,-4.2717,-4.277,-4.2848,-4.2887,-4.2983,-4.3001,-4.3101,-4.3103,-4.3079,-4.3081,-4.3131,-4.3126,-4.3285,-4.3308,-4.3189,-4.319,-4.3191,0,-4.2237,-4.2295,-4.2375,-4.2418,-4.2457,-4.2526,-4.2572,-4.2608,-4.2656,-4.2734,-4.2779,-4.2857,-4.2921,-4.3044,-4.3092,-4.3166,-4.317,-4.3221,-4.3181,-4.3172,-4.3171,-4.3167,-4.3173,-4.3227,-4.3228,-4.3229,-4.323,0,-4.2342,-4.236,-4.2426,-4.25,-4.2556,-4.2616,-4.2675,-4.271,-4.2755,-4.2809,-4.2888,-4.2938,-4.3037,-4.3115,-4.3193,-4.3232,-4.3239,-4.3243,-4.3259,-4.3251,-4.3235,-4.3245,-4.3098,-4.3238,-4.3237,-4.3237,-4.3236,-4.3236,-4.2411,-4.2464,-4.2529,-4.2603,-4.2652,-4.2707,-4.2762,-4.2804,-4.2871,-4.2954,-4.2972,-4.3056,-4.312,-4.3226,-4.3268,-4.3335,-4.3324,-4.3347,-4.3353,-4.3358,-4.336,-4.3225,-4.3349,-4.3349,-4.3349,-4.3349,-4.3349,0,-4.2516,-4.2559,-4.2627,-4.271,-4.2769,-4.2772,-4.2839,-4.2888,-4.2962,-4.3021,-4.3085,-4.3177,-4.3253,-4.3308,-4.3386,-4.3429,-4.3435,-4.3448,-4.3445,-4.3454,-4.3365,-4.3344,-4.3443,-4.3443,-4.3443,-4.3443,-4.3443,-4.3443,-4.2577,-4.2667,-4.2693,-4.2808,-4.2851,-4.2934,-4.2972,-4.3024,-4.3072,-4.3174,-4.3238,-4.3273,-4.3332,-4.3414,-4.3485,-4.3499,-4.3527,-4.3541,-4.3555,-4.347,-4.346,-4.3451,-4.3431,-4.3546,-4.3547,-4.3638,-4.3639,-4.364]},{"header":{"parameterUnit":"m.s-1","parameterCategory":1,"la1":30.2991,"la2":30.254,"lo1":-89.0895,"lo2":-89.0444,"dx":0.0017,"dy":0.0017,"nx":28,"ny":28,"refTime":"2023-02-06T09:00:00:Z","depth":0,"parameterNumber":3,"parameterNumberName":"V-component_of_WINDS"},"data":[0,0,0,0,0,0,0,0,0,0,0,0,0,0,0,0,0,0,0,0,0,0,0,0,0,0,0,0,0,0,0,0,0,0,0,0,0,0,0,0,0,0,0,0,0,0,0,0,0,0,0,0,0,0,0,0,0,0,1.3577,1.3578,0,1.3586,1.3586,1.3586,1.3611,1.3612,1.3613,1.3613,1.362,1.3619,1.3619,0,0,0,0,0,0,0,0,0,0,0,0,0,1.3582,1.3582,1.3577,1.3578,1.3578,1.3586,1.3586,1.3586,1.3611,1.3612,1.3613,1.3613,1.362,1.3619,1.3619,0,0,0,0,0,0,0,0,0,0,0,0,0,1.3584,1.3582,1.3577,1.3591,1.3593,1.3586,1.3586,1.3586,1.3611,1.3612,1.3613,1.3614,1.362,1.3619,1.3619,1.3599,0,0,1.3617,1.3617,0,0,0,0,0,0,0,0,1.3584,1.3584,1.3589,1.359,1.3592,1.3599,1.359,1.3591,1.3611,1.3604,1.3613,1.3614,1.3612,1.3612,1.3612,1.3599,1.36,1.3617,1.3617,1.3617,1.3617,0,0,0,0,0,0,0,1.3584,1.3584,1.3581,1.3589,1.3591,1.3597,1.3598,1.3591,1.3603,1.3605,1.3607,1.3607,1.3613,1.3612,1.3612,1.36,1.3617,1.3617,1.3617,1.3616,1.3574,1.3574,0,0,0,0,0,0,1.3582,1.3584,1.3581,1.3581,1.359,1.3596,1.3598,1.3596,1.3603,1.3605,1.3607,1.3609,1.3613,1.3613,1.3612,1.3592,1.3617,1.3616,1.3616,1.3575,1.3574,1.3573,0,0,0,0,0,0,1.3582,1.3582,1.358,1.3583,1.3583,1.3595,1.3593,1.3595,1.3595,1.3605,1.3607,1.3604,1.3613,1.3613,1.3603,1.3592,1.3616,1.3616,1.3576,1.3575,1.3574,1.3548,0,0,0,0,0,0,1.3582,1.3581,1.3574,1.3583,1.3583,1.3571,1.3592,1.3595,1.3594,1.3597,1.3603,1.3605,1.3614,1.3604,1.3603,1.3592,1.3615,1.3577,1.3575,1.3574,1.355,1.3547,1.3543,0,0,0,0,0,1.3582,1.3565,1.3573,1.3573,1.3574,1.357,1.357,1.3582,1.3593,1.3586,1.3593,1.3604,1.3593,1.3602,1.3601,1.359,1.3578,1.3576,1.3574,1.3552,1.3547,1.3543,0,0,0,0,0,0,1.3554,1.3567,1.3576,1.3561,1.3565,1.3574,1.3565,1.3576,1.3576,1.3578,1.3592,1.3593,1.3582,1.3585,1.3595,1.3573,1.3588,1.3586,1.3571,1.3567,1.3563,1.3563,1.3615,0,0,0,0,0,1.3546,1.3542,1.3553,1.354,1.3541,1.3553,1.3551,1.3561,1.3564,1.3565,1.3571,1.3574,1.3571,1.3569,1.3567,1.3551,1.3553,1.3543,1.3539,1.3537,1.3535,1.3528,1.3524,1.3567,1.3567,1.3567,0,0,1.3529,1.3536,1.3532,1.3534,1.3538,1.3534,1.3554,1.3548,1.3545,1.3564,1.3556,1.356,1.3564,1.3552,1.3546,1.3554,1.3524,1.3534,1.3532,1.3532,1.3526,1.3522,1.3518,1.3566,1.3566,1.3566,0,0,1.3498,1.3502,1.3492,1.3496,1.3501,1.351,1.3508,1.3516,1.352,1.3512,1.3527,1.3524,1.3519,1.3522,1.3522,1.3494,1.3506,1.3493,1.3475,1.3469,1.3465,1.3462,1.3454,1.345,1.3491,1.3491,1.3491,0,1.3476,1.3471,1.3485,1.3479,1.348,1.3499,1.3489,1.3492,1.3496,1.3497,1.3505,1.3501,1.3505,1.3494,1.3488,1.3487,1.3485,1.3493,1.3465,1.3462,1.3459,1.3451,1.3448,1.349,1.349,1.349,1.349,0,1.3445,1.3442,1.3433,1.3439,1.3438,1.343,1.3444,1.3442,1.3451,1.3459,1.3452,1.3457,1.3458,1.3456,1.3464,1.3447,1.3452,1.3462,1.3478,1.3454,1.3447,1.3443,1.3488,1.3488,1.3489,1.3489,0,0,1.3395,1.341,1.3407,1.3411,1.3419,1.3417,1.341,1.3412,1.3411,1.3413,1.3409,1.3405,1.3416,1.3417,1.3426,1.3421,1.34,1.3432,1.3433,1.3427,1.3383,1.3376,1.3372,1.3408,1.3407,1.3407,1.3384,0,1.3366,1.3357,1.337,1.3358,1.3356,1.3374,1.3369,1.3374,1.3381,1.338,1.3388,1.3386,1.3399,1.3401,1.3396,1.3404,1.3392,1.3405,1.3404,1.3404,1.3404,1.3368,1.336,1.3338,1.3381,1.338,1.338,0,1.3331,1.3334,1.3322,1.3334,1.3333,1.3328,1.3332,1.3331,1.3337,1.3343,1.3345,1.3357,1.3352,1.3367,1.3361,1.337,1.337,1.3374,1.3374,1.3375,1.3391,1.3369,1.3331,1.3328,1.3375,1.3376,1.3376,0,1.3297,1.3298,1.3292,1.3294,1.3307,1.3304,1.3309,1.3316,1.3317,1.332,1.3321,1.3323,1.3324,1.3326,1.3338,1.3348,1.3331,1.3347,1.3337,1.3336,1.3332,1.3333,1.3295,1.3331,1.3331,1.3331,1.3331,0,1.3264,1.3256,1.3277,1.3273,1.3266,1.3281,1.3273,1.328,1.3287,1.3285,1.3301,1.3298,1.3314,1.3314,1.3323,1.3318,1.3318,1.3323,1.3326,1.3322,1.3322,1.3323,1.3325,1.333,1.3331,1.3331,1.3331,0,1.3225,1.3239,1.3233,1.3247,1.325,1.3244,1.3256,1.3253,1.3262,1.326,1.326,1.3274,1.3274,1.3287,1.3289,1.3296,1.3287,1.3292,1.3285,1.3287,1.3277,1.3278,1.3239,1.3235,1.3273,1.3273,1.3273,0,1.3204,1.3199,1.3213,1.3213,1.3218,1.3218,1.322,1.3235,1.3236,1.3245,1.3241,1.3243,1.3246,1.3246,1.3256,1.3259,1.3265,1.3251,1.3265,1.3263,1.3266,1.3267,1.3267,1.3248,1.3248,1.3247,1.3247,0,1.3165,1.3173,1.3175,1.318,1.3182,1.3186,1.3191,1.3191,1.3208,1.3209,1.321,1.3212,1.3216,1.3219,1.3224,1.3229,1.3241,1.3242,1.3241,1.3237,1.3234,1.3237,1.3278,1.3243,1.3244,1.3244,1.3244,1.3244,1.3135,1.3132,1.3142,1.3145,1.3151,1.3156,1.3155,1.3164,1.3166,1.3172,1.3181,1.3181,1.319,1.3198,1.3202,1.3203,1.321,1.3207,1.3206,1.3205,1.3204,1.3233,1.3204,1.3204,1.3204,1.3204,1.3204,0,1.3098,1.3106,1.3108,1.3116,1.3118,1.3131,1.3138,1.3139,1.314,1.3147,1.315,1.3152,1.3155,1.3167,1.3171,1.3169,1.3175,1.317,1.3171,1.3172,1.3197,1.3199,1.3165,1.3165,1.3165,1.3165,1.3165,1.3165,1.3079,1.3076,1.3085,1.3085,1.3093,1.3094,1.3097,1.3103,1.3109,1.3111,1.3114,1.3122,1.3131,1.3137,1.314,1.3144,1.3145,1.3138,1.3143,1.3166,1.317,1.3174,1.3176,1.3138,1.3138,1.3119,1.3119,1.3118]}]]